Home   Weather   Durrës   Past weeks

Flag for Albania Past Weather in Durrës, Albania — Yesterday and Last 2 Weeks

Now
45 °F

Partly cloudy.


Feels Like: 43 °F
Forecast: 52 / 58 °F
Wind: 3 mph from Northwest

Location: Tirana Airport

Current Time: Dec 6, 2016 at 2:04:42 am

Latest Report: Dec 6, 2016 at 1:20 am


Visibility: N/A

Pressure: 30.36 "Hg

Humidity: 76%

Dew Point: 37 °F

Location of DurrësLocation

Past Weather in Durrës — Graph

°F

Durrës Temperature Yesterday

Maximum temperature yesterday: 61 °F (at 11:20 am)
Minimum temperature yesterday: 34 °F (at 12:20 am)
Average temperature yesterday: 48 °F

High & Low Weather Summary for the Past Weeks

 TemperatureHumidityPressure
High70 °F (Nov 22, 12:20 pm)100% (Nov 24, 4:20 am)30.36 "Hg (Nov 24, 4:20 am)
Low27 °F (Dec 1, 3:50 am)19% (Nov 30, 11:20 am)29.77 "Hg (Nov 28, 3:20 am)
Average48 °F72%30.11 "Hg
* Reported Nov 21 12:20 am — Dec 6 12:50 am, Durrës, Weather by CustomWeather, © 2016

Note: Actual official high and low records may vary slightly from our data, if they occured in-between our weather recording intervals... More about our weather records

Advertising

Durrës Weather History for the Previous 24 Hours

Scroll right to see more
 ConditionsComfort  
Time TempWeatherWind HumidityBarometerVisibility
12:50 am
Tue, Dec 6
45 °FPartly cloudy.5 mph76%30.36 "HgN/A
12:20 am46 °FPartly cloudy.3 mph82%30.36 "Hg5 mi
11:50 pm
Mon, Dec 5
46 °FPartly cloudy.No wind76%30.36 "HgN/A
11:20 pm46 °FPartly cloudy.No wind82%30.36 "Hg5 mi
10:50 pm48 °FPartly cloudy.2 mph82%30.36 "Hg4 mi
10:20 pm48 °FPassing clouds.3 mph82%30.36 "Hg4 mi
9:50 pm48 °FPassing clouds.No wind82%30.36 "Hg4 mi
9:20 pm50 °FPassing clouds.2 mph76%30.36 "HgN/A
8:50 pm50 °FPassing clouds.2 mph71%30.36 "HgN/A
8:20 pm50 °FPartly cloudy.2 mph71%30.36 "HgN/A
7:50 pm52 °FPartly cloudy.3 mph62%30.36 "HgN/A
7:20 pm50 °FPartly cloudy.5 mph71%30.36 "HgN/A
6:50 pm50 °FLight rain. Partly cloudy.3 mph71%30.36 "HgN/A
6:20 pm52 °FPassing clouds.2 mph58%30.36 "HgN/A
5:50 pm54 °FPassing clouds.5 mph54%30.36 "HgN/A
5:20 pm55 °FPassing clouds.3 mph51%30.33 "HgN/A
4:50 pm55 °FPassing clouds.3 mph51%30.33 "HgN/A
4:20 pm57 °FPassing clouds.No wind48%30.33 "HgN/A
3:50 pm57 °FBroken clouds.2 mph51%30.33 "HgN/A
3:20 pm59 °FBroken clouds.2 mph48%30.33 "HgN/A
2:50 pm61 °FBroken clouds.3 mph42%30.33 "HgN/A
2:20 pm61 °FBroken clouds.5 mph42%30.33 "HgN/A
1:50 pm61 °FBroken clouds.2 mph42%30.33 "HgN/A
1:20 pm61 °FScattered clouds.3 mph39%30.33 "HgN/A
12:50 pm61 °FScattered clouds.5 mph42%30.33 "HgN/A
12:20 pm59 °FScattered clouds.5 mph45%30.33 "HgN/A
11:50 am59 °FScattered clouds.6 mph42%30.33 "HgN/A
11:20 am61 °FPassing clouds.2 mph42%30.36 "HgN/A
10:50 am57 °FPassing clouds.2 mph48%30.36 "HgN/A
10:20 am55 °FScattered clouds.2 mph51%30.36 "HgN/A
9:50 am52 °FPassing clouds.No wind62%30.36 "Hg5 mi
9:20 am50 °FPassing clouds.No wind67%30.36 "Hg4 mi
8:50 am45 °FFog.2 mph76%30.36 "Hg3 mi
8:20 am43 °FFog.3 mph81%30.33 "Hg3 mi
7:50 am37 °FFog.3 mph87%30.33 "Hg2 mi
7:20 am36 °FFog.5 mph93%30.33 "Hg2 mi
6:50 am36 °FFog.2 mph93%30.33 "Hg2 mi
6:20 am36 °FFog.1 mph93%30.33 "Hg2 mi
5:50 am34 °FFog.1 mph93%30.33 "Hg1 mi
5:20 am37 °FFog.2 mph87%30.30 "Hg2 mi
4:50 am34 °FFog.2 mph93%30.30 "Hg2 mi
4:20 am36 °FFog.No wind93%30.30 "Hg1 mi
3:50 am36 °FFog.No wind93%30.30 "Hg2 mi
3:20 am37 °FFog.2 mph87%30.30 "Hg2 mi
2:50 am39 °FFog.2 mph87%30.30 "Hg2 mi
2:20 am37 °FFog.2 mph93%30.30 "Hg2 mi
Weather by CustomWeather, © 2016

See weather overviewHow to use our weather pages